FW1519 Weather Reports


time (UTC)temp
C
wind
direction
speed
KPH
gust
KPH
rain 1hr
cm
rain 24hr
cm
rain mn
cm
humidity
%
barometer
mb
20260502212750 18 198 9.7 22.5 0.00 0.00 0.00 36 1010.7
20260502212249 18 203 11.3 22.5 0.00 0.00 0.00 36 1010.7
20260502211749 18 234 11.3 22.5 0.00 0.00 0.00 36 1010.8
20260502211250 18 215 11.3 22.5 0.00 0.00 0.00 35 1010.9
20260502210750 18 188 9.7 20.9 0.00 0.00 0.00 36 1010.9
20260502210251 18 221 11.3 22.5 0.00 0.00 0.00 36 1011.1
20260502205245 18 232 14.5 24.1 0.00 0.00 0.00 36 1011.2
20260502204745 18 262 12.9 32.2 0.00 0.00 0.00 35 1011.4
20260502204245 18 245 14.5 32.2 0.00 0.00 0.00 35 1011.3
20260502203744 18 268 16.1 32.2 0.00 0.00 0.00 35 1011.4
20260502203245 18 213 16.1 32.2 0.00 0.00 0.00 35 1011.5
20260502202746 18 211 16.1 29.0 0.00 0.00 0.00 34 1011.6
20260502202245 18 223 16.1 29.0 0.00 0.00 0.00 35 1011.8
20260502201747 18 243 11.3 27.4 0.00 0.00 0.00 35 1012.0
20260502201242 18 157 11.3 27.4 0.00 0.00 0.00 34 1012.0
20260502200741 18 232 14.5 27.4 0.00 0.00 0.00 34 1012.1
20260502200241 17 202 16.1 25.7 0.00 0.00 0.00 35 1012.2
20260502195741 17 245 14.5 27.4 0.00 0.00 0.00 35 1012.3
20260502194740 18 219 12.9 29.0 0.00 0.00 0.00 35 1012.4
20260502194238 18 209 12.9 27.4 0.00 0.00 0.00 34 1012.5
20260502193234 17 181 9.7 30.6 0.00 0.00 0.00 35 1012.9
20260502192735 17 198 12.9 27.4 0.00 0.00 0.00 35 1013.1
20260502192233 17 239 16.1 30.6 0.00 0.00 0.00 35 1013.2
20260502191731 17 211 16.1 30.6 0.00 0.00 0.00 35 1013.2
20260502191231 17 215 14.5 29.0 0.00 0.00 0.00 35 1013.3
20260502190730 17 216 12.9 24.1 0.00 0.00 0.00 35 1013.3
20260502190230 17 173 9.7 22.5 0.00 0.00 0.00 35 1013.4
20260502185726 17 134 9.7 20.9 0.00 0.00 0.00 35 1013.5
20260502185219 16 130 12.9 22.5 0.00 0.00 0.00 36 1013.7
20260502184714 16 200 14.5 27.4 0.00 0.00 0.00 35 1013.8
20260502184208 16 205 16.1 27.4 0.00 0.00 0.00 35 1013.8
20260502183703 16 159 14.5 33.8 0.00 0.00 0.00 35 1013.8
20260502183203 16 190 14.5 33.8 0.00 0.00 0.00 35 1014.0
20260502182702 16 188 16.1 32.2 0.00 0.00 0.00 36 1014.0
20260502182203 16 238 16.1 32.2 0.00 0.00 0.00 35 1013.9
20260502180701 16 188 14.5 30.6 0.00 0.00 0.00 35 1014.3
20260502180202 16 198 16.1 30.6 0.00 0.00 0.00 36 1014.3
20260502170201 14 265 12.9 24.1 0.00 0.00 0.00 36 1015.3
20260502164202 13 167 14.5 27.4 0.00 0.00 0.00 36 1015.6
20260502163701 13 189 14.5 27.4 0.00 0.00 0.00 36 1015.9
20260502162703 13 217 11.3 24.1 0.00 0.00 0.00 37 1015.9
20260502162200 13 169 11.3 24.1 0.00 0.00 0.00 36 1016.1
20260502161202 13 199 12.9 29.0 0.00 0.00 0.00 37 1016.3
20260502160701 13 210 9.7 20.9 0.00 0.00 0.00 38 1016.3
20260502160202 13 220 11.3 24.1 0.00 0.00 0.00 39 1016.4
20260502152135 11 256 9.7 20.9 0.00 0.00 0.00 44 1016.9
20260502151130 12 253 9.7 19.3 0.00 0.00 0.00 42 1017.0
20260502150631 12 219 8.0 17.7 0.00 0.00 0.00 42 1017.1
20260502150130 11 207 6.4 19.3 0.00 0.00 0.00 45 1017.1
20260502130629 5 261 3.2 11.3 0.00 0.00 0.00 64 1018.0
20260502130130 5 254 1.6 6.4 0.00 0.00 0.00 65 1018.0
20260502123631 3 265 0.0 3.2 0.00 0.00 0.00 72 1018.1
20260502123129 2 265 1.6 4.8 0.00 0.00 0.00 72 1018.1
20260502122630 2 265 1.6 4.8 0.00 0.00 0.00 75 1018.1
20260502122129 1 304 1.6 4.8 0.00 0.00 0.00 79 1018.1
20260502121629 1 263 0.0 4.8 0.00 0.00 0.00 83 1018.1
20260502121130 1 237 0.0 0.0 0.00 0.00 0.00 84 1018.1
20260502120630 0 237 0.0 0.0 0.00 0.00 0.00 85 1018.0
20260502120129 0 237 0.0 0.0 0.00 0.00 0.00 85 1018.0
20260502115629 0 237 0.0 0.0 0.00 0.00 0.00 86 1018.0
20260502115130 0 237 0.0 0.0 0.00 0.00 0.00 87 1018.1
20260502114629 0 237 0.0 0.0 0.00 0.00 0.00 87 1018.0
20260502114130 0 237 0.0 0.0 0.00 0.00 0.00 87 1018.0
20260502113628 0 237 0.0 1.6 0.00 0.00 0.00 88 1018.0
20260502113129 0 237 0.0 6.4 0.00 0.00 0.00 88 1018.0
20260502112630 0 237 0.0 6.4 0.00 0.00 0.00 88 1017.9
20260502111630 -1 250 0.0 4.8 0.00 0.00 0.00 88 1018.0
20260502111131 -1 298 0.0 3.2 0.00 0.00 0.00 89 1018.0
20260502110626 -1 350 0.0 0.0 0.00 0.00 0.00 89 1018.1
20260502110126 -1 350 0.0 0.0 0.00 0.00 0.00 89 1018.0
20260502105122 0 350 0.0 0.0 0.00 0.00 0.00 89 1018.0
20260502104621 0 350 0.0 0.0 0.00 0.00 0.00 89 1017.9
20260502103119 0 350 0.0 0.0 0.00 0.00 0.00 89 1017.9
20260502102616 0 350 0.0 0.0 0.00 0.00 0.00 89 1017.9
20260502102118 0 350 0.0 0.0 0.00 0.00 0.00 89 1017.9
20260502101616 0 350 0.0 0.0 0.00 0.00 0.00 89 1017.9
20260502100614 0 350 0.0 0.0 0.00 0.00 0.00 89 1017.8
20260502100112 0 350 0.0 0.0 0.00 0.00 0.00 89 1017.9
20260502091105 0 350 0.0 0.0 0.00 0.00 0.00 88 1017.8
20260502090604 0 350 0.0 0.0 0.00 0.00 0.00 88 1017.8
20260502090104 0 350 0.0 1.6 0.00 0.00 0.00 88 1017.8
20260502070601 1 355 0.0 0.0 0.00 0.00 0.00 82 1018.2
20260502065602 1 355 0.0 3.2 0.00 0.00 0.00 81 1018.3
20260502065101 1 355 0.0 3.2 0.00 0.00 0.00 80 1018.4
20260502064603 1 355 0.0 1.6 0.00 0.00 0.00 79 1018.3
20260502064104 2 355 0.0 0.0 0.00 0.00 0.00 79 1018.3
20260502063556 2 355 0.0 0.0 0.00 0.00 0.00 78 1018.4
20260502063050 2 355 0.0 0.0 0.00 0.00 0.00 77 1018.3
20260502062544 2 355 0.0 0.0 0.00 0.00 0.00 77 1018.3
20260502062038 2 355 0.0 0.0 0.00 0.00 0.00 76 1018.3
20260502061532 2 355 0.0 1.6 0.00 0.00 0.00 76 1018.3
20260502060531 2 355 0.0 3.2 0.00 0.00 0.00 76 1018.3
20260502060028 2 355 1.6 3.2 0.00 0.00 0.00 76 1018.3
20260502055526 2 355 4.8 9.7 0.00 0.00 0.00 77 1018.3
20260502055026 2 355 3.2 9.7 0.00 0.00 0.00 78 1018.2
20260502054525 2 355 1.6 8.0 0.00 0.00 0.00 77 1018.3
20260502054026 2 337 0.0 0.0 0.00 0.00 0.00 74 1018.2
20260502053525 2 337 0.0 0.0 0.00 0.00 0.00 72 1018.3
20260502052522 2 337 0.0 0.0 0.00 0.00 0.00 72 1018.3
20260502052021 2 337 0.0 0.0 0.00 0.00 0.00 71 1018.3
20260502051519 3 337 0.0 0.0 0.00 0.00 0.00 70 1018.3
20260502051017 3 337 0.0 0.0 0.00 0.00 0.00 71 1018.3
20260502050515 3 337 0.0 0.0 0.00 0.00 0.00 71 1018.4
20260502050013 3 337 0.0 0.0 0.00 0.00 0.00 70 1018.3
20260502045511 3 337 0.0 0.0 0.00 0.00 0.00 67 1018.3
20260502045011 3 337 0.0 0.0 0.00 0.00 0.00 67 1018.4
20260502044509 3 337 0.0 0.0 0.00 0.00 0.00 67 1018.3
20260502044005 3 337 0.0 0.0 0.00 0.00 0.00 68 1018.3
20260502043502 3 337 0.0 0.0 0.00 0.00 0.00 70 1018.4
20260502043003 3 337 0.0 0.0 0.00 0.00 0.00 70 1018.5
20260502042502 3 337 0.0 0.0 0.00 0.00 0.00 71 1018.4
20260502042003 4 337 0.0 1.6 0.00 0.00 0.00 71 1018.3
20260502041504 4 337 1.6 3.2 0.00 0.00 0.00 71 1018.4
20260502040501 5 336 1.6 4.8 0.00 0.00 0.00 69 1018.4
20260502040002 5 334 0.0 0.0 0.00 0.00 0.00 65 1018.4
20260502035501 5 334 0.0 0.0 0.00 0.00 0.00 61 1018.4
20260502035002 5 334 0.0 0.0 0.00 0.00 0.00 59 1018.4
20260502034502 5 334 0.0 0.0 0.00 0.00 0.00 59 1018.4
20260502034001 5 334 0.0 0.0 0.00 0.00 0.00 55 1018.5
20260502033502 6 334 0.0 0.0 0.00 0.00 0.00 56 1018.4
20260502033001 6 334 0.0 0.0 0.00 0.00 0.00 56 1018.4
20260502032501 6 334 0.0 0.0 0.00 0.00 0.00 55 1018.4
20260502032004 6 334 0.0 0.0 0.00 0.00 0.00 52 1018.4
20260502031502 6 334 0.0 0.0 0.00 0.00 0.00 53 1018.4
20260502031002 6 334 0.0 0.0 0.00 0.00 0.00 51 1018.4
20260502030503 6 334 0.0 0.0 0.00 0.00 0.00 48 1018.5
20260502025451 7 334 0.0 0.0 0.00 0.00 0.00 46 1018.4
20260502024944 7 334 0.0 0.0 0.00 0.00 0.00 49 1018.4
20260502023931 7 334 0.0 0.0 0.00 0.00 0.00 47 1018.3
20260502023426 7 334 0.0 0.0 0.00 0.00 0.00 48 1018.3
20260502022923 7 334 0.0 0.0 0.00 0.00 0.00 48 1018.3
20260502022423 8 334 0.0 0.0 0.00 0.00 0.00 47 1018.3
20260502021923 8 334 0.0 0.0 0.00 0.00 0.00 45 1018.3
20260502021420 8 334 0.0 0.0 0.00 0.00 0.00 45 1018.2
20260502020919 8 334 0.0 0.0 0.00 0.00 0.00 41 1018.2
20260502020416 8 334 0.0 0.0 0.00 0.00 0.00 43 1018.1
20260502015415 9 334 0.0 0.0 0.00 0.00 0.00 44 1018.1
20260502014916 9 334 0.0 0.0 0.00 0.00 0.00 40 1018.1
20260502014416 9 334 0.0 0.0 0.00 0.00 0.00 41 1018.0
20260502013916 10 334 0.0 0.0 0.00 0.00 0.00 40 1018.0
20260502013416 10 334 0.0 0.0 0.00 0.00 0.00 39 1018.0
20260502012413 10 334 0.0 1.6 0.00 0.00 0.00 36 1017.9
20260502011913 11 334 0.0 1.6 0.00 0.00 0.00 37 1017.9
20260502011413 11 334 0.0 3.2 0.00 0.00 0.00 37 1017.8
20260502010914 11 334 1.6 6.4 0.00 0.00 0.00 35 1017.8
20260502010408 11 333 1.6 6.4 0.00 0.00 0.00 33 1017.9
20260502005404 11 32 1.6 4.8 0.00 0.00 0.00 33 1017.9
20260502004404 11 38 3.2 9.7 0.00 0.00 0.00 33 1017.8
20260502003402 11 341 3.2 9.7 0.00 0.00 0.00 32 1017.8
20260502002903 11 14 3.2 11.3 0.00 0.00 0.00 33 1017.9
20260502002403 11 32 8.0 16.1 0.00 0.00 0.00 32 1017.9
20260502001903 11 46 8.0 16.1 0.00 0.00 0.00 33 1017.8
20260502000903 11 0 4.8 12.9 0.00 0.00 0.00 34 1017.8
20260502000403 11 355 6.4 12.9 0.00 0.00 0.00 34 1017.9
20260501235904 11 338 6.4 12.9 0.00 0.00 0.00 34 1017.8
20260501235403 11 343 4.8 12.9 0.00 0.00 0.00 33 1017.9
20260501234900 11 0 3.2 8.0 0.00 0.00 0.00 34 1017.9
20260501234401 11 355 4.8 8.0 0.00 0.00 0.00 32 1017.9
20260501233359 11 343 6.4 12.9 0.00 0.00 0.00 32 1017.9
20260501232857 11 355 8.0 17.7 0.00 0.00 0.00 32 1017.9
20260501232358 12 323 6.4 17.7 0.00 0.00 0.00 31 1018.0
20260501231859 12 326 4.8 11.3 0.00 0.00 0.00 32 1017.9
20260501231356 12 296 8.0 14.5 0.00 0.00 0.00 32 1017.9
20260501230858 12 277 8.0 16.1 0.00 0.00 0.00 31 1018.0
20260501230358 12 293 6.4 16.1 0.00 0.00 0.00 32 1017.9
20260501225854 11 322 9.7 22.5 0.00 0.00 0.00 33 1018.0
20260501224353 11 300 8.0 19.3 0.00 0.00 0.00 32 1017.9
20260501223356 11 319 9.7 17.7 0.00 0.00 0.00 32 1018.0
20260501222856 12 328 8.0 17.7 0.00 0.00 0.00 32 1018.0
20260501222354 12 284 9.7 17.7 0.00 0.00 0.00 32 1018.0
20260501221349 12 319 6.4 20.9 0.00 0.00 0.00 32 1018.0
20260501220849 12 312 4.8 16.1 0.00 0.00 0.00 32 1018.0
20260501220350 12 319 4.8 16.1 0.00 0.00 0.00 32 1018.0
20260501215848 11 323 4.8 11.3 0.00 0.00 0.00 33 1018.1
20260501215348 11 306 6.4 14.5 0.00 0.00 0.00 33 1018.1
20260501214849 11 251 6.4 14.5 0.00 0.00 0.00 33 1018.1
20260501214349 11 289 6.4 16.1 0.00 0.00 0.00 33 1018.1
20260501213849 11 300 8.0 16.1 0.00 0.00 0.00 32 1018.1
20260501213351 11 339 8.0 16.1 0.00 0.00 0.00 32 1018.1